TimeEST,TemperatureF,Dew PointF,Humidity,Sea Level PressureIn,VisibilityMPH,Wind Direction,Wind SpeedMPH,Gust SpeedMPH,PrecipitationIn,Events,Conditions,WindDirDegrees,DateUTC
12:53 AM,39.0,34.0,82,30.54,5.0,Calm,Calm,-,N/A,,Haze,0,2012-11-18 05:53:00
1:53 AM,36.0,32.0,86,30.53,6.0,Calm,Calm,-,N/A,,Clear,0,2012-11-18 06:53:00
3:53 AM,36.0,32.0,86,30.53,5.0,Calm,Calm,-,N/A,,Clear,0,2012-11-18 08:53:00
4:53 AM,34.0,30.0,85,30.53,5.0,Calm,Calm,-,N/A,,Clear,0,2012-11-18 09:53:00
5:53 AM,37.9,30.9,76,30.53,8.0,Calm,Calm,-,N/A,,Clear,0,2012-11-18 10:53:00
6:53 AM,37.0,28.9,73,30.53,10.0,SE,3.5,-,N/A,,Clear,140,2012-11-18 11:53:00
7:53 AM,36.0,28.0,73,30.53,10.0,Calm,Calm,-,N/A,,Clear,0,2012-11-18 12:53:00
8:53 AM,42.1,30.0,62,30.53,10.0,SSE,5.8,-,N/A,,Clear,160,2012-11-18 13:53:00
9:53 AM,46.0,30.0,54,30.53,10.0,SSE,6.9,-,N/A,,Clear,150,2012-11-18 14:53:00
10:53 AM,48.0,30.0,50,30.53,10.0,SSE,8.1,-,N/A,,Clear,150,2012-11-18 15:53:00
11:53 AM,51.1,30.0,44,30.50,10.0,SSE,6.9,-,N/A,,Clear,160,2012-11-18 16:53:00
12:53 PM,53.1,30.0,41,30.48,10.0,South,6.9,-,N/A,,Clear,170,2012-11-18 17:53:00
1:53 PM,54.0,28.9,38,30.46,10.0,Variable,4.6,-,N/A,,Scattered Clouds,0,2012-11-18 18:53:00
2:53 PM,55.0,30.9,40,30.45,10.0,Variable,4.6,-,N/A,,Scattered Clouds,0,2012-11-18 19:53:00
3:53 PM,50.0,41.0,71,30.46,10.0,NNE,9.2,-,N/A,,Scattered Clouds,30,2012-11-18 20:53:00
4:53 PM,46.0,42.1,86,30.46,10.0,NE,6.9,-,N/A,,Partly Cloudy,50,2012-11-18 21:53:00
5:53 PM,45.0,41.0,86,30.46,10.0,Calm,Calm,-,N/A,,Clear,0,2012-11-18 22:53:00
6:53 PM,44.1,39.0,82,30.46,10.0,ESE,3.5,-,N/A,,Clear,110,2012-11-18 23:53:00
7:53 PM,46.9,30.9,54,30.45,10.0,SE,4.6,-,N/A,,Clear,140,2012-11-19 00:53:00
8:53 PM,44.1,34.0,68,30.45,10.0,Calm,Calm,-,N/A,,Clear,0,2012-11-19 01:53:00
9:53 PM,43.0,30.0,60,30.45,10.0,Calm,Calm,-,N/A,,Clear,0,2012-11-19 02:53:00
10:53 PM,41.0,28.9,62,30.43,10.0,Calm,Calm,-,N/A,,Clear,0,2012-11-19 03:53:00
11:53 PM,42.1,28.9,60,30.44,10.0,Calm,Calm,-,N/A,,Clear,0,2012-11-19 04:53:00